Change the Weather History Date:

Sunday, November 25, 2012

  Actual Average Record
Temperature  
Mean Temperature 37 °F 27 °F  
Max Temperature 39 °F 37 °F 60 °F (1960)
Min Temperature 34 °F 18 °F -8 °F (1992)
Degree Days  
Heating Degree Days 28 38  
Month to date heating degree days 666 786  
Since 1 July heating degree days 1429 1708  
Cooling Degree Days 0 0  
Month to date cooling degree days 0 0  
Year to date cooling degree days 444 264  
Moisture  
Dew Point 33 °F    
Average Humidity 78    
Maximum Humidity 92    
Minimum Humidity 64    
Precipitation  
Precipitation 0.36 in 0.03 in 0.36 in (2012)
Month to date precipitation 0.93 0.72  
Year to date precipitation 6.11 9.37  
Sea Level Pressure  
Sea Level Pressure 30.05 in    
Wind  
Wind Speed 12 mph (SW)    
Max Wind Speed 20 mph    
Max Gust Speed 29 mph    
Visibility 8 miles    
Events Rain    
T = Trace of Precipitation, MM = Missing Value Source: NWS Daily Summary

Daily Weather History Graph

Daily Weather History Graph

Search for Another Location

Airport or City:

Trip Planner

Search our weather history database for the weather conditions in past years. The results will help you decide how hot, cold, wet, or windy it might be!

Date:

Astronomy

Nov. 25, 2012 Rise Set
Actual Time 7:35 AM MST 4:55 PM MST
Civil Twilight 7:03 AM MST 5:27 PM MST
Nautical Twilight 6:28 AM MST 6:02 PM MST
Astronomical Twilight 5:53 AM MST 6:36 PM MST
Moon 3:17 PM MST (11/25) 4:49 AM MST (11/25)
Length of Visible Light 10h 23m
Length of Day
9h 20m
Waxing Gibbous, 93% of the Moon is Illuminated
Nov 25
Waxing Gibbous
Nov 28
Full
Dec 6
Last Quarter
Dec 13
New
Dec 19
First Quarter

Hourly Weather History & Observations

Time (MST) Temp. Windchill Dew Point Humidity Pressure Visibility Wind Dir Wind Speed Gust Speed Precip Events Conditions
12:34 AM 35.6 °F - 33.8 °F 93% 30.01 in 5.0 mi Calm Calm - 0.03 in Rain Light Rain
12:53 AM 35.1 °F - 33.1 °F 92% 30.04 in 3.0 mi Calm Calm - 0.05 in Rain Light Rain
1:53 AM 37.0 °F 32.4 °F 34.0 °F 89% 30.01 in 5.0 mi SSW 5.8 mph - 0.06 in Rain Light Rain
2:53 AM 37.9 °F 32.1 °F 35.1 °F 89% 29.99 in 6.0 mi South 8.1 mph - 0.08 in Rain Light Rain
3:53 AM 37.9 °F 30.0 °F 35.1 °F 89% 29.98 in 7.0 mi South 12.7 mph - 0.06 in Rain Light Rain
4:53 AM 37.9 °F 29.6 °F 35.1 °F 89% 29.98 in 6.0 mi South 13.8 mph - 0.08 in Rain Rain
5:02 AM 37.4 °F 28.9 °F 35.6 °F 93% 29.95 in 6.0 mi South 13.8 mph - 0.01 in Rain Rain
5:13 AM 37.4 °F 27.8 °F 35.6 °F 93% 29.95 in 10.0 mi SSW 17.3 mph 23.0 mph 0.02 in Rain Light Rain
5:53 AM 37.0 °F 27.7 °F 34.0 °F 89% 29.98 in 10.0 mi South 16.1 mph 23.0 mph 0.03 in Rain Light Rain
6:37 AM 39.2 °F 30.2 °F 35.6 °F 87% 29.94 in 10.0 mi SW 17.3 mph - 0.00 in   Overcast
6:53 AM 39.0 °F 29.9 °F 36.0 °F 89% 29.97 in 10.0 mi SW 17.3 mph 25.3 mph 0.00 in   Overcast
7:53 AM 39.0 °F 30.3 °F 36.0 °F 89% 29.99 in 9.0 mi SW 16.1 mph - N/A   Overcast
8:53 AM 39.0 °F 30.6 °F 36.0 °F 89% 30.00 in 6.0 mi SW 15.0 mph - N/A   Overcast
9:17 AM 37.4 °F 28.9 °F 35.6 °F 93% 29.99 in 2.0 mi SW 13.8 mph - N/A   Overcast
9:24 AM 37.4 °F 28.5 °F 35.6 °F 93% 29.99 in 1.8 mi SW 15.0 mph - N/A   Overcast
9:53 AM 37.9 °F 30.0 °F 36.0 °F 93% 30.03 in 1.2 mi SW 12.7 mph - 0.00 in Rain Light Rain
10:53 AM 37.9 °F 29.6 °F 35.1 °F 89% 30.05 in 10.0 mi SW 13.8 mph 21.9 mph 0.01 in   Overcast
11:53 AM 37.9 °F 29.2 °F 35.1 °F 89% 30.04 in 10.0 mi SW 15.0 mph - N/A   Overcast
12:50 PM 37.4 °F 28.9 °F 33.8 °F 87% 30.01 in 10.0 mi SSW 13.8 mph - N/A   Overcast
12:53 PM 37.9 °F 29.2 °F 35.1 °F 89% 30.04 in 10.0 mi SSW 15.0 mph - N/A   Overcast
1:53 PM 37.9 °F 28.5 °F 35.1 °F 89% 30.04 in 10.0 mi SSW 17.3 mph 21.9 mph N/A   Overcast
2:53 PM 37.9 °F 29.2 °F 34.0 °F 86% 30.05 in 10.0 mi SW 15.0 mph - N/A   Overcast
3:49 PM 37.4 °F 28.2 °F 33.8 °F 87% 30.04 in 10.0 mi SW 16.1 mph 23.0 mph N/A   Overcast
3:53 PM 37.0 °F 27.0 °F 34.0 °F 89% 30.07 in 10.0 mi SW 18.4 mph 23.0 mph N/A   Overcast
4:53 PM 37.0 °F 28.5 °F 33.1 °F 86% 30.08 in 10.0 mi SW 13.8 mph - N/A   Overcast
5:53 PM 37.0 °F 32.4 °F 33.1 °F 86% 30.10 in 10.0 mi SW 5.8 mph - N/A   Overcast
6:53 PM 37.0 °F 28.5 °F 32.0 °F 82% 30.11 in 10.0 mi SSW 13.8 mph - N/A   Overcast
7:53 PM 36.0 °F 26.7 °F 28.9 °F 76% 30.14 in 10.0 mi SW 15.0 mph - N/A   Overcast
8:53 PM 35.1 °F 27.4 °F 28.9 °F 78% 30.19 in 10.0 mi WSW 10.4 mph - N/A   Overcast
9:53 PM 35.1 °F - 28.9 °F 78% 30.22 in 10.0 mi Calm Calm - N/A   Overcast
10:00 PM 35.6 °F - 28.4 °F 75% 30.18 in 10.0 mi Calm Calm - N/A   Overcast
10:53 PM 34.0 °F 29.8 °F 23.0 °F 64% 30.24 in 10.0 mi North 4.6 mph - N/A   Overcast
11:53 PM 34.0 °F 26.6 °F 18.0 °F 52% 30.26 in 10.0 mi North 9.2 mph - N/A   Overcast